EN

Hourly Weather Oskino

Today, 16 May, Sunday

Time Temperature Precipitation Wind Pressure Humidity
00:00 +13°C° 0 mm 2 mps 754 mmHg 94%
01:00 +12°C° 0 mm 2 mps 754 mmHg 95%
02:00 +12°C° 0 mm 2 mps 753 mmHg 96%
03:00 +11°C° 0 mm 1 mps 753 mmHg 97%
04:00 +10°C° 0 mm 2 mps 753 mmHg 94%
05:00 +12°C° 0 mm 2 mps 753 mmHg 92%
06:00 +12°C° 0 mm 2 mps 753 mmHg 89%
07:00 +14°C° 0 mm 1 mps 752 mmHg 83%
08:00 +16°C° 0 mm 1 mps 752 mmHg 78%
09:00 +19°C° 0 mm 1 mps 751 mmHg 72%
10:00 +18°C° 0.3 mm 2 mps 751 mmHg 71%
11:00 +19°C° 0.3 mm 2 mps 750 mmHg 69%
12:00 +20°C° 0.3 mm 2 mps 750 mmHg 68%
13:00 +18°C° 0.9 mm 2 mps 750 mmHg 76%
14:00 +16°C° 0.9 mm 3 mps 750 mmHg 83%
15:00 +13°C° 0.9 mm 3 mps 750 mmHg 91%
16:00 +13°C° 0.1 mm 3 mps 750 mmHg 89%
17:00 +12°C° 0.1 mm 3 mps 751 mmHg 88%
18:00 +12°C° 0.1 mm 4 mps 751 mmHg 86%
19:00 +11°C° 0 mm 3 mps 751 mmHg 88%
20:00 +10°C° 0 mm 3 mps 752 mmHg 89%
21:00 +9°C° 0 mm 2 mps 753 mmHg 90%
22:00 +9°C° 0 mm 2 mps 753 mmHg 90%
23:00 +8°C° 0 mm 2 mps 753 mmHg 90%

Tomorrow, 17 May, Monday

Time Temperature Precipitation Wind Pressure Humidity
00:00 +8°C° 0 mm 2 mps 754 mmHg 90%
01:00 +8°C° 0 mm 2 mps 754 mmHg 90%
02:00 +8°C° 0 mm 2 mps 754 mmHg 90%
03:00 +8°C° 0 mm 1 mps 754 mmHg 90%
04:00 +8°C° 0 mm 1 mps 754 mmHg 88%
05:00 +8°C° 0 mm 1 mps 754 mmHg 86%
06:00 +8°C° 0 mm 1 mps 755 mmHg 84%
07:00 +9°C° 0 mm 1 mps 755 mmHg 79%
08:00 +10°C° 0 mm 1 mps 755 mmHg 75%
09:00 +11°C° 0 mm 1 mps 755 mmHg 70%
10:00 +13°C° 0 mm 1 mps 755 mmHg 64%
11:00 +14°C° 0 mm 1 mps 755 mmHg 57%
12:00 +16°C° 0 mm 1 mps 755 mmHg 51%
13:00 +18°C° 0 mm 1 mps 754 mmHg 49%
14:00 +19°C° 0 mm 1 mps 754 mmHg 47%
15:00 +20°C° 0 mm 1 mps 753 mmHg 45%
16:00 +19°C° 0 mm 1 mps 753 mmHg 47%
17:00 +19°C° 0 mm 1 mps 753 mmHg 50%
18:00 +19°C° 0 mm 1 mps 753 mmHg 53%
19:00 +18°C° 0 mm 1 mps 752 mmHg 56%
20:00 +16°C° 0 mm 2 mps 752 mmHg 59%
21:00 +15°C° 0 mm 2 mps 751 mmHg 62%
22:00 +15°C° 0 mm 2 mps 750 mmHg 66%
23:00 +14°C° 0 mm 3 mps 750 mmHg 70%

Day after tomorrow, 18 May, Tuesday

Time Temperature Precipitation Wind Pressure Humidity
00:00 +14°C° 0 mm 3 mps 749 mmHg 74%
01:00 +14°C° 0 mm 3 mps 749 mmHg 80%
02:00 +14°C° 0 mm 3 mps 748 mmHg 87%
03:00 +14°C° 0 mm 3 mps 748 mmHg 93%
04:00 +14°C° 0.2 mm 3 mps 747 mmHg 93%
05:00 +14°C° 0.2 mm 3 mps 747 mmHg 93%
06:00 +14°C° 0.2 mm 3 mps 746 mmHg 93%
07:00 +16°C° 0.2 mm 3 mps 746 mmHg 89%
08:00 +17°C° 0.2 mm 3 mps 746 mmHg 85%
09:00 +18°C° 0.2 mm 3 mps 745 mmHg 81%
10:00 +19°C° 0.1 mm 3 mps 745 mmHg 76%
11:00 +19°C° 0.1 mm 3 mps 745 mmHg 70%
12:00 +20°C° 0.1 mm 3 mps 745 mmHg 65%
13:00 +19°C° 1 mm 4 mps 745 mmHg 72%
14:00 +18°C° 1 mm 4 mps 745 mmHg 80%
15:00 +15°C° 1 mm 5 mps 745 mmHg 87%
16:00 +15°C° 0.4 mm 4 mps 746 mmHg 87%
17:00 +14°C° 0.4 mm 4 mps 746 mmHg 86%
18:00 +14°C° 0.4 mm 4 mps 746 mmHg 86%
19:00 +13°C° 0 mm 3 mps 747 mmHg 88%
20:00 +12°C° 0 mm 3 mps 747 mmHg 89%
21:00 +12°C° 0 mm 2 mps 747 mmHg 91%
22:00 +10°C° 0 mm 2 mps 747 mmHg 91%
23:00 +10°C° 0 mm 2 mps 747 mmHg 92%

19 May, Wednesday

Time Temperature Precipitation Wind Pressure Humidity
00:00 +10°C° 0 mm 1 mps 747 mmHg 93%
01:00 +9°C° 0 mm 2 mps 747 mmHg 93%
02:00 +9°C° 0 mm 2 mps 747 mmHg 92%
03:00 +9°C° 0 mm 2 mps 746 mmHg 92%
04:00 +8°C° 0.2 mm 3 mps 746 mmHg 92%
05:00 +7°C° 0.2 mm 4 mps 746 mmHg 91%
06:00 +7°C° 0.2 mm 5 mps 745 mmHg 91%
07:00 +6°C° 2 mm 5 mps 746 mmHg 88%
08:00 +6°C° 2 mm 5 mps 746 mmHg 84%
09:00 +6°C° 2 mm 5 mps 746 mmHg 81%
10:00 +5°C° 0.8 mm 5 mps 746 mmHg 79%
11:00 +5°C° 0.8 mm 5 mps 747 mmHg 77%
12:00 +5°C° 0.8 mm 5 mps 747 mmHg 75%
13:00 +6°C° 0 mm 5 mps 747 mmHg 64%
14:00 +8°C° 0 mm 6 mps 747 mmHg 53%
15:00 +9°C° 0 mm 6 mps 748 mmHg 43%
16:00 +9°C° 0 mm 5 mps 748 mmHg 41%
17:00 +9°C° 0 mm 5 mps 748 mmHg 39%
18:00 +10°C° 0 mm 5 mps 749 mmHg 37%
19:00 +8°C° 0 mm 5 mps 749 mmHg 41%
20:00 +7°C° 0 mm 5 mps 750 mmHg 45%
21:00 +6°C° 0 mm 5 mps 751 mmHg 49%
22:00 +5°C° 0 mm 4 mps 751 mmHg 50%
23:00 +4°C° 0 mm 4 mps 752 mmHg 51%

20 May, Thursday

Time Temperature Precipitation Wind Pressure Humidity
00:00 +3°C° 0 mm 4 mps 752 mmHg 53%
01:00 +1°C° 0 mm 4 mps 753 mmHg 54%
02:00 0°C° 0 mm 4 mps 753 mmHg 55%
03:00 0°C° 0 mm 3 mps 753 mmHg 56%
04:00 0°C° 0 mm 4 mps 754 mmHg 55%
05:00 0°C° 0 mm 4 mps 754 mmHg 55%
06:00 0°C° 0 mm 4 mps 755 mmHg 54%
07:00 +1°C° 0 mm 4 mps 755 mmHg 48%
08:00 +2°C° 0 mm 5 mps 755 mmHg 42%
09:00 +3°C° 0 mm 5 mps 755 mmHg 36%
10:00 +5°C° 0 mm 5 mps 755 mmHg 34%
11:00 +5°C° 0 mm 5 mps 755 mmHg 33%
12:00 +6°C° 0 mm 5 mps 755 mmHg 31%
13:00 +6°C° 0 mm 5 mps 755 mmHg 32%
14:00 +7°C° 0 mm 5 mps 755 mmHg 32%
15:00 +7°C° 0 mm 5 mps 755 mmHg 32%
16:00 +7°C° 0 mm 5 mps 756 mmHg 33%
17:00 +8°C° 0 mm 4 mps 756 mmHg 33%
18:00 +8°C° 0 mm 4 mps 756 mmHg 34%
19:00 +7°C° 0 mm 4 mps 756 mmHg 40%
20:00 +5°C° 0 mm 3 mps 757 mmHg 45%
21:00 +4°C° 0 mm 2 mps 757 mmHg 50%
22:00 +4°C° 0 mm 2 mps 758 mmHg 52%
23:00 +4°C° 0 mm 2 mps 758 mmHg 54%

21 May, Friday

Time Temperature Precipitation Wind Pressure Humidity
00:00 +3°C° 0 mm 2 mps 758 mmHg 55%
01:00 +3°C° 0 mm 2 mps 758 mmHg 55%
02:00 +3°C° 0 mm 2 mps 757 mmHg 55%
03:00 +3°C° 0 mm 2 mps 757 mmHg 54%
04:00 +3°C° 0 mm 2 mps 757 mmHg 55%
05:00 +3°C° 0 mm 3 mps 757 mmHg 57%
06:00 +3°C° 0 mm 3 mps 757 mmHg 58%
07:00 +4°C° 0 mm 4 mps 757 mmHg 61%
08:00 +4°C° 0 mm 4 mps 757 mmHg 64%
09:00 +5°C° 0 mm 5 mps 757 mmHg 67%
10:00 +5°C° 0.1 mm 5 mps 757 mmHg 73%
11:00 +5°C° 0.1 mm 5 mps 757 mmHg 79%
12:00 +3°C° 0.1 mm 6 mps 757 mmHg 85%
13:00 +3°C° 0.7 mm 6 mps 756 mmHg 88%
14:00 +2°C° 0.7 mm 5 mps 756 mmHg 92%
15:00 +1°C° 0.7 mm 5 mps 756 mmHg 95%
16:00 +1°C° 0.6 mm 5 mps 756 mmHg 95%
17:00 +1°C° 0.6 mm 5 mps 756 mmHg 95%
18:00 +1°C° 0.6 mm 5 mps 755 mmHg 95%
19:00 +1°C° 0 mm 5 mps 755 mmHg 95%
20:00 +1°C° 0 mm 5 mps 755 mmHg 95%
21:00 +2°C° 0 mm 5 mps 755 mmHg 95%
22:00 +3°C° 0 mm 4 mps 754 mmHg 96%
23:00 +3°C° 0 mm 4 mps 753 mmHg 96%
Show more

We Need Your Consent

Meteoprog and our Service Providers may store and access personal data such as cookies, device identifiers or other similar technologies on your device and process such data to personalise content and ads, as well as provide social media features and to analyse the traffic.

  • Store and/or access information on your device

    Cookies, device identifiers or other information can be stored or accessed on your device for the purposes indicated above.

  • Personalised ads and content, ad and content measurement, audience insights, and products development

    Ads and content can be personalised based on a profile. More data can be added to better personalise ads and content. Ad and content performance can be measured. Insights about the audience who saw the ads and content can be derived. Such data can be used to develop or improve user’s experience, systems and software.

By clicking ‘I Agree’ you will allow the use of indicated cookies, device identifiers, web beacons or other similar technologies. Your settings can be changed in the browser on your device.

For certain purposes, legitimate interests may be relied on, rather than consent. You can read more about this in our Privacy and Cookie Policy.